Regional Weather Roundup
Issued by NWS

Home | Current Version | Previous Version | Text Only | Print | Product List | Glossary Off
Versions: 1 2 3 4 5 6 7 8 9 10 11 12 13 14 15 16 17 18 19 20 21 22 23 24 25 26 27 28 29 30 31 32 33 34 35 36 37 38 39 40 41 42 43 44 45 46 47 48 49 50

000
ASUS43 KIND 241610
RWRIN

WEATHER ROUNDUP FOR INDIANA
NATIONAL WEATHER SERVICE INDIANAPOLIS IN
1200 PM EDT MON JUL 24 2017

NOTE: "FAIR" INDICATES FEW OR NO CLOUDS BELOW 12,000 FEET WITH NO
SIGNIFICANT WEATHER AND/OR OBSTRUCTIONS TO VISIBILITY.

* - STATION DOES NOT REPORT WEATHER SUCH AS PRECIPITATION OR FOG.

+ - STATION NOT QUALITY CONTROLLED BY THE NATIONAL WEATHER SERVICE.
    USE DATA WITH CAUTION...ESPECIALLY DEWPOINT AND RELATIVE
    HUMIDITY OBSERVATIONS.

INZ001>003-010>013-019-020-241700-
NORTHWEST INDIANA

CITY           SKY/WX    TMP DP  RH WIND       PRES   REMARKS
GARY /AIRPORT/ PTSUNNY   75  61  60 N12G23    30.02S
KNOX *+        CLOUDY    70  61  73 N12       30.00R
LA PORTE +     CLOUDY    68  60  75 N13       30.01S
MICHIGAN CITY+ CLOUDY    68  59  73 N9        30.02R
MONTICELLO +   PTSUNNY   73  64  72 N8        29.98S
RENSSELAER +   PTSUNNY   73  61  64 N8        30.00S
VALPARAISO     CLOUDY    72  62  71 NE8       30.02R

$$

LMZ046-743>745-241700-
SOUTHERN LAKE MICHIGAN

STATION/POSITION TIME  TEMP    WIND        PRES    WAVE
                       AIR SEA DIR/SP/G            HT
                 (UTC) (F)     (DEG/KT/KT) (MB)    (FT)
BURNS HARBOR     1540   69      20/ 16/ 18 1016.6R
MICHIGAN CITY    1540   68      10/ 18/ 20   N/A
5NW MICH CITY    1600   69 74   30/ 16/ 19   N/A     6

$$

INZ004-005-014>016-021>024-241700-
NORTH CENTRAL INDIANA

CITY           SKY/WX    TMP DP  RH WIND       PRES   REMARKS
ELKHART        CLOUDY    68  59  73 N12       30.00R
GOSHEN         CLOUDY    70  58  65 N13       29.99S
LOGANSPORT +   CLOUDY    72  63  73 N5        29.99S
PERU/GRISSOM   PTSUNNY   73  64  73 N8        29.98R
ROCHESTER +    PTSUNNY   75  63  64 N6        30.00R
SOUTH BEND     CLOUDY    69  59  70 N9        30.01R
WARSAW +       CLOUDY    70  59  68 N7        30.00R

$$

INZ006>009-017-018-025>027-241700-
NORTHEAST INDIANA

CITY           SKY/WX    TMP DP  RH WIND       PRES   REMARKS
AUBURN +       CLOUDY    68  59  73 N10       30.00R
FORT WAYNE     PTSUNNY   72  62  71 N13       29.98R
HUNTINGTON +   CLOUDY    70  62  76 N7        29.99R
KENDALLVILLE + CLOUDY    68  61  78 N7        29.99S

$$

INZ028-029-035-036-043>045-051>053-241700-
WEST CENTRAL INDIANA

CITY           SKY/WX    TMP DP  RH WIND       PRES   REMARKS
GREENCASTLE +  MOSUNNY   73  66  78 N7        29.99R
LAFAYETTE      PTSUNNY   74  66  76 N8        29.98S
TERRE HAUTE    SUNNY     79  67  66 N8        29.97S

$$

INZ030>032-037>040-046>048-054>057-064-065-241700-
CENTRAL INDIANA

CITY           SKY/WX    TMP DP  RH WIND       PRES   REMARKS
CP ATTERBURY + MOSUNNY   77  66  69 N5        29.97R
COLUMBUS       MOSUNNY   77  68  73 N5        29.96S
FRANKFORT +    CLOUDY    76  67  75 N9        30.01S
GREENWOOD *+   SUNNY    N/A N/A N/A N7        29.97S
INDIANAPOLIS   MOSUNNY   78  67  68 NW9       29.96S
-EAGLE CREEK   MOSUNNY   76  65  68 NW9       29.97R
KOKOMO +       CLOUDY    75  64  68 N10G16    30.00R
MARION +       CLOUDY    73  64  73 N7        29.99R
MT COMFORT *+  MOSUNNY   75  66  73 N6        29.98R
SHELBYVILLE    SUNNY     80  68  66 N8        29.96R
ZIONSVILLE +   PTSUNNY   73  66  77 N7        29.99S

$$

INZ033-034-041-042-049-050-058-059-241700-
EAST CENTRAL INDIANA

CITY           SKY/WX    TMP DP  RH WIND       PRES   REMARKS
MUNCIE         PTSUNNY   77  66  68 N8        29.97S
RICHMOND +     MOSUNNY   77  63  61 N10       29.97R

$$

INZ060-061-067>069-081>083-085>088-241700-
SOUTHWEST INDIANA

CITY           SKY/WX    TMP DP  RH WIND       PRES   REMARKS
EVANSVILLE     SUNNY     86  71  60 NW3       29.95R
HUNTINGBURG *+ SUNNY     82  75  79 W6        29.95R

$$

INZ062-063-066-070>080-084-089>092-241700-
SOUTH CENTRAL AND SOUTHEAST INDIANA

CITY           SKY/WX    TMP DP  RH WIND       PRES   REMARKS
BEDFORD +      SUNNY     79  66  65 CALM      29.95R
BLOOMINGTON    SUNNY     80  67  64 N5        29.96S
MADISON *+     MOSUNNY   81  64  57 W6        29.97S
NORTH VERNON + SUNNY     77  68  73 NW5       29.96R
SEYMOUR +      SUNNY    N/A N/A N/A NE7       29.95

$$





USA.gov is the U.S. government's official web portal to all federal, state and local government web resources and services.